Starlink 31040

operational
NORAD ID: 58722 Int'l Des: 2024-002 Owner: SPXS Country: US Constellation: starlink
LEOCIRCULAR

Über Starlink 31040

Beschreibung wird geladen...

Live-Position

3D-Globus wird geladen...

Nächste Überflüge

Höhenverlauf

Altitude vs Time

uPlot chart will show altitude changes over time

Zweizeiliger Elementsatz

1 58722U 24002T 25350.01874357 .00007802 00000-0 27540-3 0 9990
2 58722 53.1618 258.6640 0001783 102.6108 257.5093 15.30184305109201
Epoch: 16. Dez. 2025 • Age: 24 hours

Aktueller Status

Höhe 480.6 km
Geschwindigkeit 7.63 km/s
Subsatellitenpunkt 53.31°N, 106.8°W
Startdatum 3. Jan. 2024
Alter 1.9 years
Typ internet

Technische Details

Klassifizierung Payload
Masse 730.00 kg
Trockenmasse 700.00 kg
Gesamtmasse 730.00 kg
Länge 0.30 m
Durchmesser 4.10 m
Spannweite 29.00 m
Form Box + pan
Hersteller SPXS
Bus-Typ Starlink V2M
Phasenstatus In Orbit
Besitzer/Staat SPXS/US

Große Konstellationen

Loading constellations...